[[{"header":{"parameterUnit":"m.s-1","parameterCategory":1,"la1":30.2991,"la2":30.254,"lo1":-89.0895,"lo2":-89.0444,"dy":0.0017,"dx":0.0017,"nx":28,"ny":28,"refTime":"2025-06-07T21:00:00:Z","depth":0,"parameterNumber":2,"parameterNumberName":"U-component_of_WINDS"},"data":[0,0,0,0,0,0,0,0,0,0,0,0,0,0,0,0,0,0,0,0,0,0,0,0,0,0,0,0,0,0,0,0,0,0,0,0,0,0,0,0,0,0,0,0,0,0,0,0,0,0,0,0,0,0,0,0,0,0,4.7091,4.7092,0,4.7173,4.7174,4.7175,4.7052,4.7048,4.7044,4.704,4.7128,4.7134,4.714,0,0,0,0,0,0,0,0,0,0,0,0,0,4.6829,4.6834,4.7091,4.7092,4.7093,4.7173,4.7174,4.7175,4.7053,4.7048,4.7043,4.7038,4.7126,4.7133,4.7141,0,0,0,0,0,0,0,0,0,0,0,0,0,4.693,4.6836,4.709,4.7041,4.7038,4.7173,4.7174,4.7176,4.7054,4.7048,4.7041,4.7035,4.7123,4.7133,4.7142,4.733,0,0,4.7171,4.7175,0,0,0,0,0,0,0,0,4.6925,4.694,4.7048,4.7045,4.7041,4.7096,4.7114,4.7228,4.7056,4.7048,4.704,4.7032,4.7123,4.7132,4.7162,4.7334,4.7338,4.7172,4.7178,4.7182,4.7185,0,0,0,0,0,0,0,4.6918,4.6936,4.7123,4.7049,4.7045,4.7016,4.7023,4.7135,4.7121,4.7048,4.704,4.7051,4.712,4.7153,4.7163,4.734,4.7172,4.718,4.7186,4.719,4.7669,4.7675,0,0,0,0,0,0,4.6916,4.6931,4.7121,4.7126,4.6966,4.7026,4.7034,4.7085,4.7119,4.7118,4.7056,4.7045,4.714,4.7152,4.7166,4.7386,4.7182,4.7191,4.7196,4.7662,4.767,4.7678,0,0,0,0,0,0,4.6911,4.6934,4.7117,4.7026,4.7047,4.7037,4.7095,4.709,4.7123,4.7125,4.7122,4.7093,4.7135,4.7152,4.7289,4.7388,4.7195,4.7204,4.7653,4.7664,4.7674,4.7831,0,0,0,0,0,0,4.6904,4.6933,4.7004,4.7028,4.7052,4.724,4.7101,4.7096,4.7139,4.7125,4.7158,4.7158,4.7131,4.7276,4.7299,4.7398,4.7211,4.7645,4.7658,4.7671,4.7817,4.7846,4.787,0,0,0,0,0,4.6895,4.7047,4.7009,4.7032,4.7141,4.7246,4.7259,4.7225,4.7148,4.7219,4.722,4.7157,4.7373,4.7291,4.7316,4.7419,4.7638,4.7654,4.767,4.7805,4.784,4.787,0,0,0,0,0,0,4.7036,4.7049,4.7007,4.7171,4.7208,4.7225,4.7314,4.7263,4.7324,4.7309,4.7264,4.7273,4.742,4.7433,4.7341,4.7602,4.7493,4.7514,4.7588,4.7621,4.7647,4.764,4.7219,0,0,0,0,0,4.7086,4.717,4.7177,4.732,4.7341,4.7325,4.7369,4.7339,4.7376,4.7392,4.7403,4.7443,4.7519,4.7571,4.7642,4.7818,4.7823,4.7902,4.7928,4.795,4.7969,4.8062,4.8096,4.7729,4.7729,4.7729,0,0,4.7191,4.7208,4.7264,4.7349,4.7374,4.7462,4.7339,4.7437,4.7502,4.7407,4.7536,4.7547,4.7587,4.7745,4.7815,4.7761,4.8071,4.797,4.7987,4.7994,4.8081,4.8116,4.8147,4.774,4.7738,4.7736,0,0,4.7426,4.7448,4.7569,4.7596,4.7635,4.7623,4.7652,4.7677,4.7679,4.7808,4.7738,4.7814,4.7948,4.7979,4.8013,4.8258,4.8201,4.8282,4.8421,4.8512,4.8541,4.8566,4.8652,4.8684,4.8301,4.8302,4.8302,0,4.7551,4.7679,4.7638,4.774,4.7779,4.7696,4.7818,4.7847,4.7908,4.7937,4.7875,4.8039,4.8061,4.8224,4.8283,4.8314,4.8346,4.8278,4.854,4.8565,4.8588,4.867,4.8702,4.8311,4.831,4.8309,4.8308,0,4.783,4.7921,4.8014,4.8073,4.8122,4.8235,4.821,4.8266,4.8231,4.8226,4.8357,4.838,4.8453,4.849,4.8458,4.8648,4.8613,4.8547,4.8436,4.8633,4.8709,4.874,4.8325,4.8321,4.8319,4.8316,0,0,4.8157,4.819,4.8225,4.825,4.8286,4.8355,4.8464,4.8533,4.8581,4.8626,4.8715,4.8829,4.8767,4.8805,4.8776,4.8856,4.9046,4.8779,4.8779,4.8827,4.9256,4.9305,4.9342,4.9009,4.9015,4.902,4.9252,0,4.839,4.8575,4.854,4.8721,4.8803,4.8724,4.8818,4.8851,4.8848,4.8918,4.8915,4.8996,4.8908,4.8931,4.9006,4.9007,4.9132,4.899,4.9092,4.9096,4.9083,4.9382,4.9435,4.9653,4.9282,4.9287,4.929,0,4.8687,4.874,4.8929,4.895,4.8983,4.9068,4.9128,4.9196,4.9231,4.9224,4.9266,4.9221,4.9328,4.9216,4.9363,4.9268,4.9307,4.9314,4.9321,4.9329,4.9205,4.9397,4.9722,4.9755,4.9337,4.9333,4.933,0,4.8905,4.9024,4.9152,4.9176,4.9204,4.9266,4.9281,4.9309,4.9353,4.9406,4.9433,4.9499,4.9535,4.9587,4.9561,4.9483,4.9713,4.96,4.971,4.9711,4.9762,4.9759,5.0097,4.9789,4.9788,4.9788,4.9787,0,4.9168,4.9286,4.925,4.9328,4.9458,4.9417,4.9547,4.9552,4.9578,4.9656,4.9593,4.9668,4.9629,4.9702,4.9682,4.9806,4.9823,4.982,4.9814,4.9826,4.9826,4.985,4.9834,4.9796,4.9794,4.9793,4.9791,0,4.9433,4.9414,4.9547,4.9563,4.9569,4.9664,4.9677,4.975,4.9742,4.9842,4.9863,4.9851,4.9933,4.9912,5.0002,4.9988,5.0144,5.0119,5.0132,5.0126,5.0237,5.0226,5.0602,5.0648,5.0312,5.0315,5.0317,0,4.9602,4.9691,4.9715,4.9762,4.9781,4.9858,4.9902,4.9864,4.9913,4.9958,5.0026,5.0101,5.016,5.0294,5.0294,5.0362,5.0337,5.0464,5.0347,5.0355,5.0337,5.0332,5.034,5.0487,5.0491,5.0494,5.0497,0,4.9904,4.9889,4.9953,5.0015,5.0068,5.0115,5.0156,5.0199,5.0164,5.0221,5.0303,5.0348,5.0438,5.0514,5.0576,5.0591,5.0539,5.0533,5.0562,5.0575,5.0578,5.0577,5.0195,5.0525,5.0522,5.052,5.0518,5.0517,5.0125,5.0199,5.0227,5.0301,5.0327,5.0367,5.0436,5.0435,5.0502,5.0572,5.0546,5.0639,5.0671,5.0748,5.0771,5.0844,5.0796,5.0838,5.0849,5.086,5.0873,5.0567,5.0855,5.0855,5.0854,5.0853,5.0853,0,5.0422,5.0435,5.0504,5.0562,5.062,5.0563,5.0606,5.0658,5.074,5.0774,5.0832,5.0925,5.0998,5.1002,5.1071,5.1128,5.1105,5.1147,5.1142,5.1146,5.0912,5.088,5.1164,5.1164,5.1164,5.1164,5.1164,5.1164,5.0583,5.0705,5.0694,5.0828,5.0841,5.0931,5.096,5.0995,5.1021,5.1128,5.1187,5.1189,5.1211,5.128,5.1344,5.1343,5.1371,5.1422,5.1413,5.1194,5.1163,5.1133,5.1103,5.1429,5.1429,5.164,5.1642,5.1643]},{"header":{"parameterUnit":"m.s-1","parameterCategory":1,"la1":30.2991,"la2":30.254,"lo1":-89.0895,"lo2":-89.0444,"dy":0.0017,"dx":0.0017,"nx":28,"ny":28,"refTime":"2025-06-07T21:00:00:Z","depth":0,"parameterNumber":3,"parameterNumberName":"V-component_of_WINDS"},"data":[0,0,0,0,0,0,0,0,0,0,0,0,0,0,0,0,0,0,0,0,0,0,0,0,0,0,0,0,0,0,0,0,0,0,0,0,0,0,0,0,0,0,0,0,0,0,0,0,0,0,0,0,0,0,0,0,0,0,5.2727,5.2728,0,5.2882,5.2883,5.2885,5.2857,5.2854,5.2851,5.2849,5.3009,5.3016,5.3022,0,0,0,0,0,0,0,0,0,0,0,0,0,5.2407,5.2413,5.2726,5.2728,5.273,5.2881,5.2883,5.2886,5.2857,5.2854,5.2851,5.2848,5.3007,5.3015,5.3023,0,0,0,0,0,0,0,0,0,0,0,0,0,5.2552,5.2415,5.2726,5.2734,5.2737,5.2881,5.2883,5.2886,5.2858,5.2854,5.285,5.2846,5.3004,5.3014,5.3024,5.317,0,0,5.3055,5.306,0,0,0,0,0,0,0,0,5.2544,5.2564,5.2731,5.2734,5.2737,5.2846,5.2829,5.2981,5.2859,5.2812,5.2849,5.2844,5.2958,5.2972,5.301,5.3178,5.3184,5.3056,5.3063,5.3067,5.307,0,0,0,0,0,0,0,5.2534,5.2557,5.2788,5.2734,5.2737,5.2731,5.2747,5.2858,5.2906,5.2816,5.2814,5.2833,5.2959,5.3,5.3014,5.3187,5.3056,5.3065,5.3072,5.3076,5.3482,5.3486,0,0,0,0,0,0,5.2521,5.2549,5.2783,5.2792,5.2628,5.274,5.2758,5.2815,5.2905,5.2915,5.2836,5.2831,5.2985,5.3002,5.3019,5.3196,5.3067,5.3077,5.3082,5.3477,5.3483,5.3488,0,0,0,0,0,0,5.2514,5.2542,5.2777,5.267,5.27,5.275,5.2814,5.282,5.2861,5.292,5.2929,5.287,5.2982,5.3005,5.3133,5.3201,5.3081,5.309,5.3472,5.3479,5.3485,5.3551,0,0,0,0,0,0,5.2505,5.254,5.2596,5.2672,5.2705,5.2888,5.2818,5.2826,5.2879,5.2874,5.2954,5.2963,5.2981,5.3118,5.3143,5.3213,5.3098,5.3466,5.3475,5.3483,5.3543,5.3559,5.3573,0,0,0,0,0,5.2494,5.2608,5.2599,5.2627,5.2776,5.2891,5.2911,5.2928,5.2885,5.2941,5.2979,5.2961,5.3189,5.3131,5.3159,5.3233,5.3462,5.3472,5.3482,5.3536,5.3556,5.3573,0,0,0,0,0,0,5.254,5.2618,5.2609,5.2751,5.2815,5.2886,5.2958,5.2948,5.3026,5.3018,5.3036,5.3055,5.3185,5.3222,5.3155,5.3379,5.3319,5.3336,5.335,5.337,5.3385,5.3373,5.3107,0,0,0,0,0,5.2566,5.2653,5.2717,5.2836,5.2869,5.2908,5.2959,5.2967,5.3034,5.3061,5.3108,5.3174,5.326,5.3317,5.34,5.3548,5.3565,5.3613,5.3628,5.364,5.3654,5.3735,5.3757,5.3522,5.3522,5.3522,0,0,5.2622,5.2676,5.2729,5.2847,5.2897,5.2987,5.2931,5.3028,5.3095,5.3075,5.3199,5.3236,5.3311,5.3449,5.3513,5.3484,5.3723,5.3653,5.3663,5.367,5.3748,5.377,5.379,5.3529,5.3528,5.3527,0,0,5.2769,5.2819,5.2923,5.2975,5.3051,5.3077,5.3102,5.3176,5.3199,5.3323,5.331,5.339,5.3539,5.3593,5.364,5.3807,5.3794,5.3834,5.3913,5.3992,5.401,5.4027,5.4087,5.4108,5.3848,5.3848,5.3848,0,5.2829,5.2963,5.2979,5.3077,5.3129,5.3115,5.3221,5.3271,5.3371,5.3407,5.3374,5.356,5.361,5.376,5.3801,5.384,5.3869,5.3825,5.4006,5.4023,5.4039,5.4096,5.4118,5.3852,5.3852,5.3852,5.3851,0,5.3033,5.3126,5.3202,5.3298,5.3359,5.3461,5.3492,5.3551,5.3554,5.3583,5.3709,5.3768,5.3863,5.3899,5.3902,5.405,5.403,5.4002,5.3942,5.4065,5.4119,5.4141,5.3859,5.3857,5.3856,5.3855,0,0,5.3214,5.3317,5.3345,5.3388,5.3471,5.3544,5.3645,5.3737,5.3788,5.3858,5.3943,5.4069,5.4043,5.4096,5.4106,5.4175,5.4304,5.4137,5.4139,5.4166,5.447,5.4491,5.4516,5.4295,5.4299,5.4302,5.4464,0,5.3369,5.3547,5.3564,5.3724,5.3811,5.3798,5.3887,5.3948,5.3977,5.4055,5.4088,5.4177,5.4136,5.4168,5.4236,5.4273,5.4365,5.4262,5.4375,5.4379,5.4356,5.4545,5.4567,5.4717,5.4485,5.4489,5.4491,0,5.3574,5.3649,5.3817,5.3888,5.3925,5.4004,5.409,5.4165,5.4233,5.425,5.431,5.431,5.4414,5.435,5.4495,5.4425,5.4472,5.4497,5.4503,5.4515,5.4442,5.4561,5.4765,5.4787,5.4525,5.4522,5.452,0,5.3689,5.3832,5.3951,5.3989,5.4075,5.413,5.4169,5.4234,5.4288,5.4363,5.4398,5.4484,5.4532,5.4599,5.4622,5.4574,5.4766,5.4704,5.4783,5.4782,5.4824,5.4821,5.5039,5.4854,5.4854,5.4854,5.4853,0,5.386,5.3964,5.4004,5.4077,5.4193,5.4211,5.4326,5.4361,5.4419,5.4499,5.4494,5.457,5.4596,5.4676,5.4695,5.4812,5.4833,5.485,5.4854,5.4851,5.4849,5.4882,5.4872,5.486,5.4858,5.4857,5.4856,0,5.4008,5.4039,5.4168,5.4239,5.4259,5.4341,5.4402,5.4473,5.4501,5.4603,5.4628,5.4673,5.4767,5.4797,5.491,5.4923,5.506,5.5054,5.5036,5.5037,5.5114,5.5106,5.5361,5.5395,5.5188,5.519,5.5192,0,5.4115,5.4195,5.4274,5.4327,5.4367,5.4453,5.4508,5.4529,5.4587,5.4671,5.4732,5.4825,5.4901,5.5052,5.5095,5.5182,5.5178,5.5261,5.5191,5.5186,5.518,5.5175,5.5183,5.5275,5.5277,5.5278,5.528,0,5.4303,5.4314,5.4393,5.4478,5.4544,5.4612,5.4678,5.4722,5.4752,5.4818,5.4913,5.4972,5.5088,5.518,5.5269,5.5308,5.53,5.5302,5.5324,5.5322,5.5308,5.5317,5.5072,5.5296,5.5294,5.5293,5.5292,5.5291,5.4434,5.4503,5.457,5.4658,5.471,5.4771,5.4841,5.4878,5.4959,5.5054,5.5062,5.5165,5.5232,5.535,5.5394,5.5476,5.5452,5.5485,5.5494,5.5502,5.5508,5.5295,5.5492,5.5492,5.5491,5.5491,5.5491,0,5.462,5.4662,5.4744,5.4835,5.4905,5.489,5.4962,5.5022,5.5113,5.5176,5.525,5.536,5.545,5.5499,5.5589,5.5645,5.5643,5.5667,5.5664,5.5673,5.5524,5.5495,5.5667,5.5667,5.5667,5.5667,5.5667,5.5667,5.4726,5.4843,5.4862,5.5005,5.5047,5.5148,5.519,5.5247,5.5297,5.542,5.5494,5.5526,5.5584,5.5678,5.5759,5.5771,5.5805,5.5832,5.5842,5.5702,5.5683,5.5666,5.5639,5.5839,5.5839,5.5984,5.5986,5.5987]}]]